This is the latest recevied weather packets stored in our database for station/object NC4M. If no packets are shown the sender has not sent any weather packets the latest 10 day(s).
| Time | Temp. | Humidity | Pressure | Rain* | Wind** | Luminosity | Snow |
|---|---|---|---|---|---|---|---|
| 1787892173 | 20.56° C | 73% | 1019.5 hPa | 0 mm | - | 0 W/m² | - |
| 1787891873 | 20° C | 77% | 1019.2 hPa | 0 mm | - | 0 W/m² | - |
| 1787891569 | 20° C | 80% | 1019.2 hPa | 0 mm | - | 0 W/m² | - |
| 1787891269 | 19.44° C | 82% | 1019.1 hPa | 0 mm | - | 0 W/m² | - |
| 1787890963 | 19.44° C | 86% | 1018.9 hPa | 0 mm | - | 0 W/m² | - |
| 1787890658 | 19.44° C | 88% | 1019.1 hPa | 0 mm | - | 0 W/m² | - |
| 1787890357 | 19.44° C | 87% | 1019.2 hPa | 0 mm | - | 0 W/m² | - |
| 1787890053 | 18.89° C | 88% | 1019.1 hPa | 0 mm | - | 0 W/m² | - |
| 1787889748 | 19.44° C | 89% | 1019.1 hPa | 0 mm | - | 0 W/m² | - |
| 1787889443 | 19.44° C | 90% | 1019.1 hPa | 0 mm | - | 0 W/m² | - |
| 1787889143 | 19.44° C | 90% | 1019.2 hPa | 0 mm | - | 0 W/m² | - |
| 1787888837 | 19.44° C | 90% | 1019 hPa | 0 mm | - | 0 W/m² | - |
| 1787888533 | 20° C | 89% | 1018.9 hPa | 0 mm | - | 0 W/m² | - |
| 1787888227 | 20° C | 89% | 1019 hPa | 0 mm | - | 0 W/m² | - |
| 1787887923 | 20° C | 89% | 1018.9 hPa | 0 mm | - | 0 W/m² | - |
| 1787887618 | 20° C | 89% | 1019 hPa | 0 mm | - | 0 W/m² | - |
| 1787887314 | 20° C | 89% | 1018.8 hPa | 0 mm | - | 0 W/m² | - |
| 1787887013 | 20° C | 89% | 1018.8 hPa | 0 mm | - | 0 W/m² | - |
| 1787886708 | 20° C | 90% | 1018.9 hPa | 0 mm | - | 0 W/m² | - |
| 1787886403 | 20° C | 90% | 1018.8 hPa | 0 mm | - | 0 W/m² | - |
| 1787886099 | 20° C | 90% | 1018.9 hPa | 0 mm | - | 0 W/m² | - |
| 1787885797 | 20° C | 89% | 1019 hPa | 0 mm | - | 0 W/m² | - |
| 1787885491 | 20° C | 89% | 1018.9 hPa | 0 mm | - | 0 W/m² | - |
| 1787885185 | 20° C | 89% | 1018.7 hPa | 0 mm | - | 0 W/m² | - |
| 1787884884 | 20° C | 89% | 1018.6 hPa | 0 mm | - | 0 W/m² | - |
* Rain latest hour (hover to see other rain measurements)
** Current wind speed in m/s (hover to see current wind gust speed)